Baton Rouge, LA

2:18 PM CDT on March 29, 2017 (GMT -0500)
Baton Rouge Metro-Ryan

Weather History for KBTR - May, 2013

Change the Weather History Date:

Monday, May 27, 2013

  Actual Average Record
Temperature  
Mean Temperature 77 °F 78 °F  
Max Temperature 88 °F 89 °F 98 °F (1922)
Min Temperature 65 °F 68 °F 49 °F (1961)
Degree Days  
Heating Degree Days 0 0  
Month to date heating degree days 30 0  
Since 1 July heating degree days 1551 1553  
Cooling Degree Days 12 13  
Month to date cooling degree days 211 279  
Year to date cooling degree days 368 510  
Growing Degree Days 26 (Base 50)    
Moisture  
Dew Point 66 °F    
Average Humidity 73    
Maximum Humidity 100    
Minimum Humidity 46    
Precipitation  
Precipitation 0.00 in 0.17 in 2.94 in (1948)
Month to date precipitation 6.83 4.22  
Year to date precipitation 37.98 23.85  
Snow  
Snow 0.00 in - - ()
Month to date snowfall 0.0  
Since 1 July snowfall 0.0  
Snow Depth 0.00 in    
Sea Level Pressure  
Sea Level Pressure 30.07 in    
Wind  
Wind Speed 7 mph (SE)    
Max Wind Speed 16 mph    
Max Gust Speed 23 mph    
Visibility 10 miles    
Events      
T = Trace of Precipitation, MM = Missing Value Source: NWS Daily Summary

Daily Weather History Graph

Daily Weather History Graph

Search for Another Location

Airport or City:

Trip Planner

Search our weather history database for the weather conditions in past years. The results will help you decide how hot, cold, wet, or windy it might be!

Date:

Astronomy

May. 27, 2013 Rise Set
Actual Time 6:04 AM CDT 7:59 PM CDT
Civil Twilight 5:37 AM CDT 8:26 PM CDT
Nautical Twilight 5:04 AM CDT 8:59 PM CDT
Astronomical Twilight 4:29 AM CDT 9:34 PM CDT
Moon 10:44 PM CDT (5/27) 8:39 AM CDT (5/27)
Length of Visible Light 14h 49m
Length of Day
13h 55m
Waning Gibbous, 91% of the Moon is Illuminated
May 27
Waning Gibbous
May 31
Last Quarter
Jun 8
New
Jun 16
First Quarter
Jun 23
Full

Hourly Weather History & Observations

Time (CDT) Temp. Heat Index Dew Point Humidity Pressure Visibility Wind Dir Wind Speed Gust Speed Precip Events Conditions
12:53 AM 69.1 °F - 64.9 °F 87% 30.10 in 10.0 mi ENE 3.5 mph - N/A   Clear
1:53 AM 66.9 °F - 64.0 °F 90% 30.09 in 10.0 mi East 3.5 mph - N/A   Clear
2:53 AM 68.0 °F - 64.9 °F 90% 30.09 in 10.0 mi East 4.6 mph - N/A   Clear
3:53 AM 66.9 °F - 64.0 °F 90% 30.09 in 10.0 mi ENE 3.5 mph - N/A   Clear
4:53 AM 66.0 °F - 64.0 °F 93% 30.09 in 10.0 mi Calm Calm - N/A   Clear
5:53 AM 64.9 °F - 64.0 °F 97% 30.09 in 10.0 mi Calm Calm - N/A   Clear
6:53 AM 66.9 °F - 64.9 °F 93% 30.11 in 10.0 mi East 3.5 mph - N/A   Clear
7:53 AM 73.0 °F - 66.9 °F 81% 30.12 in 10.0 mi East 4.6 mph - N/A   Clear
8:53 AM 77.0 °F - 68.0 °F 74% 30.13 in 10.0 mi SE 6.9 mph - N/A   Clear
9:53 AM 81.0 °F 82.7 °F 64.9 °F 58% 30.12 in 10.0 mi SE 8.1 mph - N/A   Clear
10:53 AM 82.9 °F 84.6 °F 64.9 °F 54% 30.12 in 10.0 mi South 9.2 mph - N/A   Clear
11:53 AM 84.0 °F 85.8 °F 64.9 °F 53% 30.11 in 10.0 mi South 6.9 mph 20.7 mph N/A   Scattered Clouds
12:53 PM 84.9 °F 86.6 °F 64.9 °F 51% 30.10 in 10.0 mi SSE 10.4 mph - N/A   Scattered Clouds
1:53 PM 84.9 °F 86.6 °F 64.9 °F 51% 30.07 in 10.0 mi SSE 10.4 mph 17.3 mph N/A   Partly Cloudy
2:53 PM 87.1 °F 88.3 °F 64.0 °F 46% 30.05 in 10.0 mi South 9.2 mph - N/A   Partly Cloudy
3:53 PM 88.0 °F 89.6 °F 64.9 °F 46% 30.03 in 10.0 mi South 9.2 mph - N/A   Partly Cloudy
4:53 PM 86.0 °F 87.6 °F 64.9 °F 49% 30.02 in 10.0 mi South 8.1 mph - N/A   Partly Cloudy
5:53 PM 86.0 °F 87.3 °F 64.0 °F 48% 30.01 in 10.0 mi South 10.4 mph - N/A   Partly Cloudy
6:53 PM 84.0 °F 86.5 °F 66.9 °F 56% 30.00 in 10.0 mi SSW 9.2 mph - N/A   Mostly Cloudy
7:53 PM 81.0 °F 83.0 °F 66.0 °F 60% 30.02 in 10.0 mi SE 6.9 mph - N/A   Mostly Cloudy
8:53 PM 77.0 °F - 69.1 °F 76% 30.02 in 10.0 mi ESE 5.8 mph - N/A   Scattered Clouds
9:53 PM 77.0 °F - 69.1 °F 76% 30.03 in 10.0 mi SE 8.1 mph - N/A   Mostly Cloudy
10:53 PM 77.0 °F - 68.0 °F 74% 30.05 in 10.0 mi SSE 11.5 mph - N/A   Overcast
11:53 PM 75.9 °F - 68.0 °F 76% 30.07 in 10.0 mi SSE 6.9 mph - N/A   Mostly Cloudy